Regional Weather Roundup
Issued by NWS

Home | Current Version | Previous Version | Text Only | Print | Product List | Glossary Off
Versions: 1 2 3 4 5 6 7 8 9 10 11 12 13 14 15 16 17 18 19 20 21 22 23 24 25 26 27 28 29 30 31 32 33 34 35 36 37 38 39 40 41 42 43 44 45 46 47 48 49 50

000
ASUS45 KCYS 251510
RWRWY

WYOMING REGIONAL WEATHER ROUNDUP
NATIONAL WEATHER SERVICE CHEYENNE WY
800 AM MST TUE NOV 25 2014

NOTE:  "FAIR" INDICATES FEW OR NO CLOUDS BELOW 12,000 FEET
WITH NO SIGNIFICANT WEATHER AND/OR OBSTRUCTIONS TO VISIBILITY.

WYZ001-251600-
YELLOWSTONE NATIONAL PARK

CITY           SKY/WX    TMP DP  RH WIND       PRES   REMARKS
LK YELLOWSTONE   N/A     21  18  88 W7        30.00S WCI  12
W YELLOWSTONE  NOT AVBL

$$
WYZ002>013-054>058-071-098>099-251600-
NORTHERN WYOMING

CITY           SKY/WX    TMP DP  RH WIND       PRES   REMARKS
JACKSON        NOT AVBL
CODY           CLOUDY    36  25  64 W22G38    29.85R WCI  24
GREYBULL       SNOW      25  24  96 S5        29.93R VSB 1/2 WCI  19
WORLAND        LGT SNOW  25  22  88 CALM      29.91S FOG
SHERIDAN       LGT SNOW  32  30  92 S5        29.82S FOG     WCI  27
BUFFALO        LGT SNOW  31  27  85 N5        29.82R FOG     WCI  26
GILLETTE       LGT SNOW  29  26  89 SW8       29.80F VSB 3/4 WCI  21
HULETT         FLURRIES  30  19  64 SW9       29.81S WCI  22
NEWCASTLE      FAIR      28  18  64 CALM      29.84F

$$
WYZ014>020-022>026-101>103-251600-
CENTRAL WYOMING

CITY           SKY/WX    TMP DP  RH WIND       PRES   REMARKS
BIG PINEY      MOCLDY    26  14  60 CALM      30.12S
PINEDALE       LGT SNOW  23  23 100 NW9       30.11S WCI  13
DUBOIS         LGT SNOW  27  19  74 N18G32    29.94R WCI  13
LANDER         CLOUDY    24  12  60 SE7       29.92S WCI  16
RIVERTON       CLOUDY    33  17  51 SW21G30   29.93R WCI  21
CASPER         CLOUDY    30  15  53 SW17      29.89F WCI  18
DOUGLAS        CLOUDY   N/A N/A N/A W21G30    29.86R

$$
WYZ021-027>030-104>119-251600-
SOUTHERN WYOMING

CITY           SKY/WX    TMP DP  RH WIND       PRES   REMARKS
EVANSTON       CLOUDY    26  17  68 SW31      30.20F WCI   9
KEMMERER       CLOUDY    27  21  80 W26G33    30.16R WCI  11
FORT BRIDGER   PTSUNNY   29  19  66 W28G43    30.20S WCI  13
ROCK SPRINGS   CLOUDY    25  13  60 W32G40    30.09F WCI   8
DIXON          CLOUDY    26  13  58 SW13G24   30.21R WCI  15
RAWLINS        CLOUDY    24  13  62 W32G44    29.98F WCI   6
SARATOGA       PTSUNNY   27  14  59 SW26G39   30.06F WCI  11
LARAMIE        CLOUDY    25  13  60 W20G28    29.94F WCI  11
CHEYENNE       CLOUDY    30  14  51 W30G38    29.89S WCI  15
TORRINGTON     CLOUDY    37  14  38 W29G39    29.88F WCI  25
PINE BLUFFS    CLOUDY    34  16  47 SW18G28   29.93F WCI  23

$$


USA.gov is the U.S. government's official web portal to all federal, state and local government web resources and services.